Fairfield, IA

12:10 PM CDT on August 24, 2016 (GMT -0500)
Fairfield Municipal

Weather History for KFFL - June, 2013

Change the Weather History Date:

Friday, June 14, 2013

  Actual Average Record
Temperature  
Mean Temperature 66 °F -  
Max Temperature 73 °F 84 °F 99 °F (1987)
Min Temperature 59 °F 62 °F 53 °F (1989)
Cooling Degree Days 1    
Growing Degree Days 16 (Base 50)    
Moisture  
Dew Point 60 °F    
Average Humidity 77    
Maximum Humidity 94    
Minimum Humidity 57    
Precipitation  
Precipitation 0.14 in - - ()
Sea Level Pressure  
Sea Level Pressure 30.04 in    
Wind  
Wind Speed 7 mph (SE)    
Max Wind Speed 25 mph    
Max Gust Speed 34 mph    
Visibility 10 miles    
Events Rain    
Averages and records for this station are not official NWS values.
T = Trace of Precipitation, MM = Missing Value Source: NWS Daily Summary

Daily Weather History Graph

Daily Weather History Graph

Search for Another Location

Airport or City:

Trip Planner

Search our weather history database for the weather conditions in past years. The results will help you decide how hot, cold, wet, or windy it might be!

Date:

Astronomy

Jun. 14, 2013 Rise Set
Actual Time 5:34 AM CDT 8:41 PM CDT
Civil Twilight 5:01 AM CDT 9:15 PM CDT
Nautical Twilight 4:18 AM CDT 9:58 PM CDT
Astronomical Twilight 3:27 AM CDT 10:49 PM CDT
Moon 11:12 AM CDT (6/14) No Moon Set
Length of Visible Light 16h 13m
Length of Day
15h 06m
Waxing Crescent, 30% of the Moon is Illuminated
Jun 14
Waxing Crescent
Jun 16
First Quarter
Jun 23
Full
Jun 29
Last Quarter
Jul 8
New

Hourly Weather History & Observations

Time (CDT) Temp. Dew Point Humidity Pressure Visibility Wind Dir Wind Speed Gust Speed Precip Events Conditions
12:15 AM 68.0 °F 55.4 °F 64% 30.03 in 10.0 mi ENE 5.8 mph - N/A   Clear
12:35 AM 68.0 °F 55.4 °F 64% 30.04 in 10.0 mi East 3.5 mph - N/A   Clear
12:55 AM 68.0 °F 55.4 °F 64% 30.05 in 10.0 mi Calm Calm - N/A   Clear
1:15 AM 66.2 °F 57.2 °F 73% 30.05 in 10.0 mi East 3.5 mph - N/A   Clear
1:35 AM 64.4 °F 57.2 °F 77% 30.05 in 10.0 mi East 3.5 mph - N/A   Clear
1:55 AM 66.2 °F 55.4 °F 68% 30.05 in 10.0 mi ENE 5.8 mph - N/A   Clear
2:15 AM 64.4 °F 55.4 °F 73% 30.05 in 10.0 mi ENE 3.5 mph - N/A   Clear
2:35 AM 64.4 °F 57.2 °F 77% 30.06 in 10.0 mi Calm Calm - N/A   Clear
2:55 AM 64.4 °F 57.2 °F 77% 30.06 in 10.0 mi Calm Calm - N/A   Clear
3:15 AM 62.6 °F 57.2 °F 82% 30.06 in 10.0 mi NNE 3.5 mph - N/A   Clear
3:35 AM 62.6 °F 57.2 °F 82% 30.05 in 10.0 mi Calm Calm - N/A   Clear
3:55 AM 62.6 °F 55.4 °F 77% 30.06 in 10.0 mi NE 4.6 mph - N/A   Clear
4:15 AM 62.6 °F 55.4 °F 77% 30.06 in 10.0 mi NE 5.8 mph - N/A   Clear
4:35 AM 62.6 °F 55.4 °F 77% 30.06 in 10.0 mi ENE 4.6 mph - N/A   Clear
4:55 AM 59.0 °F 55.4 °F 88% 30.07 in 10.0 mi ENE 4.6 mph - N/A   Clear
5:15 AM 60.8 °F 55.4 °F 82% 30.07 in 10.0 mi ENE 6.9 mph - N/A   Clear
5:35 AM 60.8 °F 55.4 °F 82% 30.08 in 10.0 mi ENE 6.9 mph - N/A   Clear
5:55 AM 60.8 °F 55.4 °F 82% 30.07 in 10.0 mi East 9.2 mph - N/A   Clear
6:15 AM 60.8 °F 55.4 °F 82% 30.07 in 10.0 mi East 9.2 mph - N/A   Clear
6:35 AM 62.6 °F 57.2 °F 82% 30.09 in 10.0 mi East 6.9 mph - N/A   Clear
6:55 AM 62.6 °F 57.2 °F 82% 30.09 in 10.0 mi East 9.2 mph - N/A   Mostly Cloudy
7:15 AM 64.4 °F 57.2 °F 77% 30.09 in 10.0 mi ESE 12.7 mph - N/A   Overcast
7:35 AM 64.4 °F 57.2 °F 77% 30.11 in 10.0 mi ESE 12.7 mph - N/A   Mostly Cloudy
7:55 AM 66.2 °F 57.2 °F 73% 30.10 in 10.0 mi ESE 16.1 mph - N/A   Scattered Clouds
8:15 AM 66.2 °F 57.2 °F 73% 30.12 in 10.0 mi ESE 15.0 mph 21.9 mph N/A   Scattered Clouds
8:35 AM 66.2 °F 57.2 °F 73% 30.11 in 10.0 mi SE 12.7 mph - N/A   Partly Cloudy
8:55 AM 66.2 °F 57.2 °F 73% 30.09 in 10.0 mi SE 13.8 mph 20.7 mph N/A   Clear
9:15 AM 68.0 °F 57.2 °F 68% 30.08 in 10.0 mi SE 13.8 mph - N/A   Clear
9:35 AM 69.8 °F 57.2 °F 64% 30.07 in 10.0 mi SE 17.3 mph - N/A   Clear
9:55 AM 71.6 °F 57.2 °F 60% 30.06 in 10.0 mi SE 17.3 mph - N/A   Clear
10:15 AM 73.4 °F 59.0 °F 61% 30.07 in 10.0 mi SE 18.4 mph - N/A   Clear
10:35 AM 73.4 °F 59.0 °F 61% 30.09 in 10.0 mi ESE 10.4 mph 17.3 mph N/A   Clear
10:55 AM 73.4 °F 57.2 °F 57% 30.09 in 10.0 mi SE 10.4 mph 17.3 mph N/A   Clear
11:15 AM 73.4 °F 59.0 °F 61% 30.10 in 10.0 mi SE 12.7 mph - N/A   Clear
11:35 AM 73.4 °F 59.0 °F 61% 30.10 in 10.0 mi SE 9.2 mph - N/A   Partly Cloudy
11:55 AM 71.6 °F 57.2 °F 60% 30.14 in 10.0 mi SE 5.8 mph - N/A   Mostly Cloudy
12:15 PM 71.6 °F 60.8 °F 69% 30.12 in 4.0 mi South 8.1 mph - N/A Rain Light Rain
12:35 PM 69.8 °F 60.8 °F 73% 30.11 in 10.0 mi South 8.1 mph - N/A   Light Drizzle
12:55 PM 68.0 °F 60.8 °F 78% 30.11 in 9.0 mi South 8.1 mph - 0.02 in   Light Drizzle
1:15 PM 68.0 °F 62.6 °F 83% 30.08 in 5.0 mi South 10.4 mph - N/A Rain Light Rain
1:35 PM 66.2 °F 62.6 °F 88% 30.07 in 9.0 mi SE 9.2 mph - N/A   Light Drizzle
1:55 PM 66.2 °F 62.6 °F 88% 30.03 in 9.0 mi East 13.8 mph - 0.05 in   Light Drizzle
2:15 PM 66.2 °F 62.6 °F 88% 29.99 in 10.0 mi East 20.7 mph - N/A Rain Light Rain
2:35 PM 68.0 °F 62.6 °F 83% 29.95 in 9.0 mi ESE 25.3 mph 34.5 mph N/A   Clear
2:55 PM 68.0 °F 62.6 °F 83% 29.97 in 10.0 mi ESE 15.0 mph 29.9 mph 0.01 in   Clear
3:15 PM 69.8 °F 62.6 °F 78% 30.02 in 10.0 mi Variable 5.8 mph 13.8 mph N/A   Clear
3:35 PM 71.6 °F 62.6 °F 73% 30.01 in 10.0 mi South 12.7 mph - N/A   Clear
3:55 PM 71.6 °F 62.6 °F 73% 30.00 in 10.0 mi ESE 11.5 mph - N/A   Clear
4:15 PM 71.6 °F 60.8 °F 69% 30.00 in 10.0 mi SSE 10.4 mph - N/A   Clear
4:35 PM 71.6 °F 60.8 °F 69% 30.03 in 10.0 mi SSW 11.5 mph - N/A   Clear
4:55 PM 71.6 °F 60.8 °F 69% 30.01 in 10.0 mi South 8.1 mph - N/A   Clear
5:15 PM 71.6 °F 60.8 °F 69% 30.02 in 10.0 mi SSW 9.2 mph - N/A   Clear
5:35 PM 71.6 °F 60.8 °F 69% 30.01 in 10.0 mi South 6.9 mph - N/A   Clear
5:55 PM 71.6 °F 62.6 °F 73% 30.02 in 10.0 mi SW 8.1 mph - N/A   Clear
6:15 PM 69.8 °F 62.6 °F 78% 30.03 in 10.0 mi WSW 3.5 mph - N/A   Scattered Clouds
6:35 PM 69.8 °F 62.6 °F 78% 30.05 in 10.0 mi WNW 4.6 mph - N/A   Mostly Cloudy
6:55 PM 69.8 °F 62.6 °F 78% 30.05 in 10.0 mi Calm Calm - N/A   Partly Cloudy
7:15 PM 68.0 °F 62.6 °F 83% 30.06 in 9.0 mi Calm Calm - N/A   Light Drizzle
7:35 PM 68.0 °F 64.4 °F 88% 30.05 in 9.0 mi Calm Calm - N/A Rain Light Rain
7:55 PM 68.0 °F 64.4 °F 88% 30.02 in 8.0 mi SE 6.9 mph - 0.02 in   Light Drizzle
8:15 PM 66.2 °F 64.4 °F 94% 30.04 in - West 8.1 mph - N/A Rain Light Rain
8:35 PM 66.2 °F 64.4 °F 94% 30.03 in 9.0 mi SW 5.8 mph - N/A   Light Drizzle
8:55 PM 66.2 °F 64.4 °F 94% 29.95 in 8.0 mi South 11.5 mph - 0.04 in Rain Light Rain
9:15 PM 66.2 °F 62.6 °F 88% 29.87 in 10.0 mi South 19.6 mph 25.3 mph N/A   Light Drizzle
9:35 PM 66.2 °F 62.6 °F 88% 29.86 in 10.0 mi South 12.7 mph 23.0 mph N/A   Light Drizzle
9:55 PM 66.2 °F 62.6 °F 88% 29.86 in 10.0 mi South 17.3 mph - N/A   Light Drizzle
10:15 PM 68.0 °F 60.8 °F 78% 29.89 in 10.0 mi South 16.1 mph 24.2 mph N/A   Mostly Cloudy
10:35 PM 68.0 °F 60.8 °F 78% 29.93 in 10.0 mi SSE 6.9 mph 16.1 mph N/A   Mostly Cloudy
10:55 PM 66.2 °F 62.6 °F 88% 29.97 in 10.0 mi NNE 6.9 mph - N/A   Overcast
11:15 PM 66.2 °F 62.6 °F 88% 29.95 in 10.0 mi East 8.1 mph - N/A   Scattered Clouds
11:35 PM 64.4 °F 62.6 °F 94% 29.97 in 10.0 mi ENE 6.9 mph - N/A   Mostly Cloudy
11:55 PM 64.4 °F 62.6 °F 94% 29.98 in 10.0 mi East 6.9 mph - N/A   Overcast